Tracking 27126 objects as of 30-Mar-2023
HD Live streaming from Space Station
objects crossing your sky now

SL-8 DEB

Track SL-8 DEB now!
10-day predictions


NORAD ID: 21161
Int'l Code: 1991-009Y
Perigee: 1,496.9 km
Apogee: 1,707.5 km
Inclination: 74.1 °
Period: 118.1 minutes
Semi major axis: 7973 km
RCS: 0.2642 m2 (medium)
Launch date: February 12, 1991
Source: Commonwealth of Independent States (former USSR) (CIS)
Launch site: PLESETSK MISSILE AND SPACE COMPLEX (PKMTR)

Note: This is SATELLITE DEBRIS
Your satellite tracking list
Your tracking list is empty




NASA's NSSDC Master Catalog

Two Line Element Set (TLE):
1 21161U 91009Y   23088.92203907 -.00000007  00000-0  61761-4 0  9996
2 21161  74.0696 268.5689 0132072 136.6442 295.9690 12.19427881427411
Source of the keplerian elements: AFSPC